Dades meteomassalio
Diari Summary for Marc 25, 2017 Units:  Metric    English   Both
« Previous Day
Next Day »
Diari Semanal Mensual Anual Personalitzat
  Maxima: Minima: Mijana:
Temperatura: 13.3 °C 5.7 °C 9.1 °C
Rosada: 6.3 °C 1.8 °C 4.6 °C
Humitat: 93 % 50 % 75 %
Velocitat del vent: 31.5 km/h 0.0 km/h 5.8 km/h
Racha vent: 31.5 km/h - -
Vent:- - SE
Pressio: 1017.8 hPa 1011.1 hPa -
Pluja: 1.0 mm    
Historical Graphs
 
 
Tabular Data for Marc 25, 2017
Time Temperature Dew Point Pressure Wind Wind Speed Wind Gust Humidity Rainfall Rate (Hourly) solar Conditions
00:01 7.3 °C 4.3 °C 1014.4 hPa Calm     81 % 0.0 mm 0.0 W/m2 RA
00:06 7.2 °C 4.3 °C 1014.4 hPa Calm     82 % 0.0 mm 0.0 W/m2 CLR
00:11 7.1 °C 4.6 °C 1014.4 hPa Calm     84 % 0.0 mm 0.0 W/m2 CLR
00:21 6.9 °C 4.7 °C 1014.4 hPa Calm     86 % 0.0 mm 0.0 W/m2 CLR
00:26 6.8 °C 4.6 °C 1014.4 hPa Calm     86 % 0.0 mm 0.0 W/m2 CLR
00:31 6.7 °C 4.7 °C 1014.4 hPa Calm     87 % 0.0 mm 0.0 W/m2 CLR
00:36 6.6 °C 4.6 °C 1014.4 hPa NNE 1.6 km/h 1.6 km/h 87 % 0.0 mm 0.0 W/m2 RA
00:41 6.6 °C 4.7 °C 1014.1 hPa ENE 5.6 km/h 5.6 km/h 88 % 0.0 mm 0.0 W/m2
00:46 6.5 °C 4.8 °C 1014.1 hPa Calm     89 % 0.0 mm 0.0 W/m2 CLR
00:51 6.4 °C 4.8 °C 1014.1 hPa Calm     89 % 0.3 mm 0.0 W/m2 RA
00:56 6.4 °C 4.7 °C 1014.1 hPa Calm     89 % 0.3 mm 0.0 W/m2 CLR
01:01 6.3 °C 4.8 °C 1014.1 hPa Calm     90 % 0.5 mm 0.0 W/m2 CLR
01:06 6.3 °C 4.8 °C 1014.1 hPa Calm     90 % 0.5 mm 0.0 W/m2 CLR
01:07 6.3 °C 4.8 °C 1014.1 hPa Calm     90 % 0.5 mm 0.0 W/m2 CLR
01:12 6.3 °C 4.8 °C 1014.1 hPa Calm     90 % 0.5 mm 0.0 W/m2 RA
01:18 6.3 °C 4.8 °C 1014.1 hPa Calm     90 % 0.5 mm 0.0 W/m2
01:23 6.3 °C 4.8 °C 1014.1 hPa Calm     90 % 0.8 mm 0.0 W/m2 RA
01:28 6.3 °C 4.8 °C 1014.1 hPa Calm     90 % 0.8 mm 0.0 W/m2 CLR
01:33 6.3 °C 4.8 °C 1013.8 hPa Calm     90 % 1.0 mm 0.0 W/m2 RA
01:38 6.3 °C 4.8 °C 1014.1 hPa SW 5.6 km/h 5.6 km/h 90 % 0.8 mm 0.0 W/m2 CLR
01:43 6.3 °C 4.9 °C 1013.8 hPa Calm     91 % 0.8 mm 0.0 W/m2 CLR
01:48 6.2 °C 4.9 °C 1013.4 hPa Calm     91 % 0.5 mm 0.0 W/m2 CLR
01:53 6.2 °C 4.9 °C 1013.4 hPa Calm     91 % 0.5 mm 0.0 W/m2 CLR
01:58 6.2 °C 4.9 °C 1013.4 hPa Calm     91 % 0.5 mm 0.0 W/m2 CLR
02:03 6.3 °C 4.9 °C 1013.4 hPa Calm     91 % 0.5 mm 0.0 W/m2 CLR
02:08 6.2 °C 4.9 °C 1013.4 hPa Calm     91 % 0.5 mm 0.0 W/m2 CLR
02:13 6.2 °C 4.8 °C 1013.4 hPa Calm     91 % 0.5 mm 0.0 W/m2 CLR
02:18 6.2 °C 4.9 °C 1013.1 hPa Calm     92 % 0.5 mm 0.0 W/m2 CLR
02:23 6.2 °C 4.9 °C 1013.1 hPa Calm     92 % 0.3 mm 0.0 W/m2 CLR
02:28 6.2 °C 4.8 °C 1013.1 hPa SSW 5.6 km/h 5.6 km/h 91 % 0.3 mm 0.0 W/m2 CLR
02:33 6.1 °C 4.8 °C 1013.1 hPa Calm     91 % 0.0 mm 0.0 W/m2 CLR
02:38 6.1 °C 4.9 °C 1013.1 hPa Calm     92 % 0.0 mm 0.0 W/m2 CLR
02:43 6.1 °C 4.9 °C 1013.1 hPa Calm     92 % 0.0 mm 0.0 W/m2 CLR
02:48 6.1 °C 4.8 °C 1013.1 hPa SW 1.9 km/h   91 % 0.0 mm 0.0 W/m2 CLR
02:53 6.1 °C 4.8 °C 1013.1 hPa Calm     91 % 0.0 mm 0.0 W/m2 CLR
02:58 6.1 °C 4.7 °C 1012.8 hPa West 1.6 km/h   91 % 0.0 mm 0.0 W/m2 CLR
03:03 6.1 °C 4.7 °C 1012.4 hPa Calm     91 % 0.0 mm 0.0 W/m2 CLR
03:08 6.1 °C 4.7 °C 1012.4 hPa Calm     91 % 0.0 mm 0.0 W/m2 CLR
03:13 6.1 °C 4.7 °C 1012.4 hPa Calm     91 % 0.0 mm 0.0 W/m2 CLR
03:18 6.0 °C 4.7 °C 1012.4 hPa Calm     91 % 0.0 mm 0.0 W/m2 CLR
03:23 6.0 °C 4.7 °C 1012.1 hPa Calm     91 % 0.0 mm 0.0 W/m2 CLR
03:28 6.0 °C 4.7 °C 1012.1 hPa Calm     91 % 0.0 mm 0.0 W/m2 CLR
03:33 6.0 °C 4.7 °C 1011.7 hPa Calm     91 % 0.0 mm 0.0 W/m2 CLR
03:38 5.9 °C 4.6 °C 1011.4 hPa Calm     91 % 0.0 mm 0.0 W/m2 CLR
03:43 5.9 °C 4.6 °C 1011.4 hPa Calm     91 % 0.0 mm 0.0 W/m2 CLR
03:48 5.9 °C 4.6 °C 1011.4 hPa Calm     91 % 0.0 mm 0.0 W/m2 CLR
03:53 6.0 °C 4.8 °C 1011.4 hPa Calm     92 % 0.0 mm 0.0 W/m2 CLR
03:58 6.0 °C 4.8 °C 1011.4 hPa Calm     92 % 0.0 mm 0.0 W/m2 CLR
04:03 6.0 °C 4.8 °C 1011.1 hPa Calm     92 % 0.0 mm 0.0 W/m2 CLR
04:08 6.0 °C 4.8 °C 1011.1 hPa Calm     92 % 0.0 mm 0.0 W/m2 CLR
04:13 5.9 °C 4.7 °C 1011.1 hPa Calm     92 % 0.0 mm 0.0 W/m2 CLR
04:18 5.9 °C 4.7 °C 1011.1 hPa Calm     92 % 0.0 mm 0.0 W/m2 CLR
04:23 5.9 °C 4.7 °C 1011.1 hPa Calm     92 % 0.0 mm 0.0 W/m2 CLR
04:28 5.8 °C 4.6 °C 1011.4 hPa Calm     92 % 0.0 mm 0.0 W/m2 CLR
04:33 5.8 °C 4.6 °C 1011.4 hPa Calm     92 % 0.0 mm 0.0 W/m2 CLR
04:38 5.8 °C 4.6 °C 1011.4 hPa Calm     92 % 0.0 mm 0.0 W/m2 CLR
04:43 5.7 °C 4.5 °C 1011.7 hPa ENE 3.7 km/h   92 % 0.0 mm 0.0 W/m2 CLR
04:48 5.7 °C 4.5 °C 1011.7 hPa East 3.7 km/h 3.7 km/h 92 % 0.0 mm 0.0 W/m2 CLR
04:53 5.7 °C 4.5 °C 1011.7 hPa Calm     92 % 0.0 mm 0.0 W/m2 CLR
04:59 5.7 °C 4.5 °C 1011.7 hPa Calm     92 % 0.0 mm 0.0 W/m2 CLR
05:09 5.7 °C 4.4 °C 1011.7 hPa Calm     92 % 0.0 mm 0.0 W/m2 CLR
05:14 5.7 °C 4.5 °C 1012.1 hPa Calm     92 % 0.0 mm 0.0 W/m2 CLR
05:19 5.8 °C 4.6 °C 1012.1 hPa Calm     92 % 0.0 mm 0.0 W/m2 CLR
05:24 5.8 °C 4.6 °C 1012.1 hPa Calm     92 % 0.0 mm 0.0 W/m2 CLR
05:29 5.8 °C 4.6 °C 1012.1 hPa Calm     92 % 0.0 mm 0.0 W/m2 CLR
05:34 5.8 °C 4.7 °C 1012.4 hPa Calm     93 % 0.0 mm 0.0 W/m2 CLR
05:39 5.8 °C 4.7 °C 1012.8 hPa Calm     93 % 0.0 mm 0.0 W/m2 CLR
05:44 5.8 °C 4.8 °C 1012.8 hPa Calm     93 % 0.0 mm 0.0 W/m2 CLR
05:54 5.8 °C 4.8 °C 1012.8 hPa Calm     93 % 0.0 mm 0.0 W/m2 CLR
05:59 5.9 °C 4.8 °C 1012.8 hPa Calm     93 % 0.0 mm 0.0 W/m2 CLR
06:04 5.8 °C 4.8 °C 1012.8 hPa Calm   0.2 km/h 93 % 0.0 mm 0.0 W/m2 CLR
06:09 5.9 °C 4.8 °C 1012.8 hPa Calm     93 % 0.0 mm 0.0 W/m2 CLR
06:14 5.9 °C 4.7 °C 1012.8 hPa Calm     92 % 0.0 mm 0.0 W/m2 CLR
06:19 6.0 °C 4.8 °C 1012.8 hPa WSW 6.4 km/h 6.4 km/h 92 % 0.0 mm 0.0 W/m2 CLR
06:24 6.2 °C 4.8 °C 1012.4 hPa West 9.3 km/h 9.3 km/h 91 % 0.0 mm 0.0 W/m2 CLR
06:29 6.4 °C 4.9 °C 1012.4 hPa West 13.0 km/h 13.0 km/h 90 % 0.0 mm 0.0 W/m2 CLR
06:34 6.4 °C 4.8 °C 1012.4 hPa West 11.1 km/h 11.1 km/h 89 % 0.0 mm 0.0 W/m2 CLR
06:39 6.5 °C 4.7 °C 1012.8 hPa WNW 13.0 km/h 13.0 km/h 88 % 0.0 mm 0.0 W/m2 CLR
06:44 6.5 °C 4.7 °C 1012.8 hPa WNW 6.4 km/h 6.4 km/h 88 % 0.0 mm 0.0 W/m2 CLR
06:49 6.4 °C 4.6 °C 1012.8 hPa WNW 7.4 km/h 7.4 km/h 88 % 0.0 mm 0.0 W/m2 OVC
06:54 6.3 °C 4.5 °C 1012.8 hPa Calm     88 % 0.0 mm 0.0 W/m2 OVC
06:59 6.3 °C 4.3 °C 1012.8 hPa West 5.6 km/h 5.6 km/h 87 % 0.0 mm 0.0 W/m2 OVC
07:04 6.3 °C 4.3 °C 1012.8 hPa West 5.6 km/h 5.6 km/h 87 % 0.0 mm 5.0 W/m2 OVC
07:09 6.3 °C 4.1 °C 1013.1 hPa Calm     86 % 0.0 mm 9.0 W/m2 BKN
07:14 6.3 °C 4.1 °C 1013.1 hPa Calm     86 % 0.0 mm 12.0 W/m2 BKN
07:19 6.2 °C 4.1 °C 1013.1 hPa SW 5.6 km/h 5.6 km/h 86 % 0.0 mm 16.0 W/m2 BKN
07:24 6.2 °C 4.0 °C 1013.1 hPa SW 5.6 km/h 5.6 km/h 86 % 0.0 mm 21.0 W/m2 BKN
07:29 6.2 °C 4.0 °C 1013.1 hPa Calm     86 % 0.0 mm 26.0 W/m2 BKN
07:34 6.1 °C 3.9 °C 1013.4 hPa Calm     86 % 0.0 mm 32.0 W/m2 BKN
07:39 6.1 °C 3.9 °C 1013.4 hPa Calm     86 % 0.0 mm 39.0 W/m2 BKN
07:44 6.1 °C 3.9 °C 1013.4 hPa Calm     86 % 0.0 mm 46.0 W/m2 SCT
07:49 6.2 °C 4.1 °C 1013.4 hPa Calm     86 % 0.0 mm 51.0 W/m2 SCT
07:54 6.3 °C 4.1 °C 1013.8 hPa Calm     86 % 0.0 mm 53.0 W/m2 SCT
07:57 6.3 °C 4.1 °C 1013.8 hPa Calm     86 % 0.0 mm 56.0 W/m2 SCT
08:02 6.3 °C 4.1 °C 1013.8 hPa Calm     86 % 0.0 mm 63.0 W/m2 SCT
08:07 6.3 °C 4.2 °C 1013.8 hPa Calm     86 % 0.0 mm 63.0 W/m2 SCT
08:12 6.4 °C 4.1 °C 1013.8 hPa Calm     85 % 0.0 mm 69.0 W/m2 SCT
08:17 6.4 °C 4.1 °C 1014.1 hPa Calm     85 % 0.0 mm 72.0 W/m2 FEW
08:22 6.5 °C 4.2 °C 1014.1 hPa Calm     85 % 0.0 mm 104.0 W/m2 FEW
08:27 6.6 °C 4.4 °C 1014.1 hPa Calm     86 % 0.0 mm 127.0 W/m2 CLR
08:32 6.7 °C 4.5 °C 1014.1 hPa Calm     86 % 0.0 mm 144.0 W/m2 CLR
08:37 6.8 °C 4.7 °C 1014.1 hPa Calm     86 % 0.0 mm 158.0 W/m2 CLR
08:42 7.0 °C 4.8 °C 1014.1 hPa South 9.7 km/h 9.7 km/h 86 % 0.0 mm 172.0 W/m2 CLR
08:52 7.3 °C 4.4 °C 1014.1 hPa SSE 6.4 km/h 6.4 km/h 82 % 0.0 mm 204.0 W/m2 CLR
08:57 7.4 °C 4.4 °C 1014.1 hPa SSE 5.6 km/h 5.6 km/h 81 % 0.0 mm 216.0 W/m2 CLR
09:02 7.6 °C 4.9 °C 1014.1 hPa SE 6.4 km/h 6.4 km/h 83 % 0.0 mm 225.0 W/m2 CLR
09:07 7.7 °C 5.0 °C 1014.1 hPa SE 5.6 km/h 5.6 km/h 83 % 0.0 mm 257.0 W/m2 CLR
09:12 7.9 °C 5.2 °C 1014.1 hPa Calm     83 % 0.0 mm 269.0 W/m2 CLR
09:17 8.1 °C 5.2 °C 1014.1 hPa Calm     82 % 0.0 mm 250.0 W/m2 CLR
09:22 8.2 °C 5.3 °C 1014.1 hPa Calm     82 % 0.0 mm 276.0 W/m2 CLR
09:27 8.4 °C 5.5 °C 1014.1 hPa Calm     82 % 0.0 mm 283.0 W/m2 CLR
09:32 8.6 °C 5.6 °C 1014.1 hPa Calm     81 % 0.0 mm 323.0 W/m2 CLR
09:37 8.8 °C 5.3 °C 1014.1 hPa Calm     79 % 0.0 mm 350.0 W/m2 CLR
09:42 9.1 °C 5.6 °C 1014.1 hPa Calm     79 % 0.0 mm 374.0 W/m2 CLR
09:47 9.4 °C 5.7 °C 1014.1 hPa Calm     78 % 0.0 mm 436.0 W/m2 CLR
09:52 9.8 °C 6.2 °C 1014.1 hPa Calm     78 % 0.0 mm 473.0 W/m2 CLR
09:57 10.2 °C 6.3 °C 1014.1 hPa Calm     77 % 0.0 mm 469.0 W/m2 CLR
10:03 10.5 °C 5.9 °C 1014.1 hPa Calm     73 % 0.0 mm 512.0 W/m2 CLR
10:08 10.8 °C 5.5 °C 1014.1 hPa Calm     70 % 0.0 mm 550.0 W/m2 CLR
10:13 11.1 °C 4.3 °C 1014.1 hPa West 5.6 km/h 5.6 km/h 63 % 0.0 mm 578.0 W/m2 CLR
10:18 11.6 °C 4.3 °C 1014.1 hPa NNE 18.5 km/h 18.5 km/h 61 % 0.0 mm 642.0 W/m2 CLR
10:23 11.7 °C 4.2 °C 1014.1 hPa NW 9.7 km/h 9.7 km/h 60 % 0.0 mm 294.0 W/m2 CLR
10:28 11.8 °C 4.1 °C 1014.1 hPa NW 14.8 km/h 14.8 km/h 59 % 0.0 mm 598.0 W/m2 CLR
10:33 11.8 °C 3.6 °C 1014.1 hPa West 14.8 km/h 14.8 km/h 57 % 0.0 mm 636.0 W/m2 CLR
10:38 11.9 °C 3.1 °C 1014.1 hPa NNW 20.4 km/h 20.4 km/h 55 % 0.0 mm 649.0 W/m2 CLR
10:43 12.1 °C 3.6 °C 1014.1 hPa North 11.3 km/h 11.3 km/h 56 % 0.0 mm 633.0 W/m2 CLR
10:48 12.2 °C 3.9 °C 1014.1 hPa NNW 11.1 km/h 11.1 km/h 57 % 0.0 mm 608.0 W/m2 CLR
10:53 12.1 °C 3.1 °C 1014.4 hPa WNW 11.1 km/h 11.1 km/h 54 % 0.0 mm 656.0 W/m2 CLR
10:58 12.3 °C 3.7 °C 1014.4 hPa NNW 24.1 km/h 24.1 km/h 56 % 0.0 mm 452.0 W/m2 CLR
11:03 11.9 °C 2.4 °C 1014.4 hPa North 25.9 km/h 25.9 km/h 52 % 0.0 mm 387.0 W/m2 CLR
11:08 11.9 °C 2.1 °C 1014.4 hPa NW 24.1 km/h 24.1 km/h 51 % 0.0 mm 439.0 W/m2 CLR
11:18 12.3 °C 2.4 °C 1014.4 hPa NNW 29.6 km/h 29.6 km/h 51 % 0.0 mm 473.0 W/m2 CLR
11:23 12.2 °C 2.1 °C 1014.4 hPa NW 20.4 km/h 20.4 km/h 50 % 0.0 mm 346.0 W/m2 CLR
11:28 12.1 °C 1.9 °C 1014.4 hPa WNW 18.5 km/h 18.5 km/h 50 % 0.0 mm 288.0 W/m2 CLR
11:33 11.9 °C 1.8 °C 1014.4 hPa NNW 18.5 km/h 18.5 km/h 50 % 0.0 mm 285.0 W/m2 CLR
11:38 11.9 °C 2.3 °C 1014.8 hPa NW 6.4 km/h 6.4 km/h 52 % 0.0 mm 292.0 W/m2 CLR
11:43 11.9 °C 2.3 °C 1014.8 hPa NNW 3.7 km/h   52 % 0.0 mm 309.0 W/m2 CLR
11:48 11.8 °C 2.6 °C 1014.8 hPa Calm     53 % 0.0 mm 239.0 W/m2 CLR
11:53 11.8 °C 2.8 °C 1014.8 hPa NNE 1.9 km/h 1.9 km/h 54 % 0.0 mm 248.0 W/m2 CLR
11:58 11.8 °C 2.6 °C 1014.8 hPa NNW 14.8 km/h 14.8 km/h 53 % 0.0 mm 271.0 W/m2 CLR
12:03 11.9 °C 3.2 °C 1014.8 hPa North 18.5 km/h 18.5 km/h 55 % 0.0 mm 362.0 W/m2 CLR
12:08 12.0 °C 3.2 °C 1015.1 hPa NE 5.6 km/h 5.6 km/h 55 % 0.0 mm 360.0 W/m2 CLR
12:13 12.1 °C 2.6 °C 1015.1 hPa NNE 14.8 km/h 14.8 km/h 52 % 0.0 mm 436.0 W/m2 CLR
12:18 12.2 °C 2.9 °C 1014.8 hPa Calm     53 % 0.0 mm 515.0 W/m2 CLR
12:23 12.4 °C 2.8 °C 1014.8 hPa ENE 4.8 km/h 4.8 km/h 52 % 0.0 mm 455.0 W/m2 CLR
12:28 12.6 °C 3.6 °C 1014.8 hPa NE 7.4 km/h 7.4 km/h 54 % 0.0 mm 608.0 W/m2 CLR
12:33 12.6 °C 3.8 °C 1014.8 hPa NE 18.5 km/h 18.5 km/h 55 % 0.0 mm 564.0 W/m2 CLR
12:38 12.5 °C 3.4 °C 1014.8 hPa NE 14.8 km/h 14.8 km/h 54 % 0.0 mm 587.0 W/m2 CLR
12:43 12.7 °C 3.8 °C 1014.8 hPa NE 14.8 km/h 14.8 km/h 55 % 0.0 mm 543.0 W/m2 CLR
12:48 12.5 °C 3.2 °C 1014.8 hPa NE 3.2 km/h 3.2 km/h 53 % 0.0 mm 413.0 W/m2 CLR
12:53 12.4 °C 3.3 °C 1015.1 hPa ENE 16.7 km/h 16.7 km/h 54 % 0.0 mm 420.0 W/m2 CLR
12:58 12.3 °C 3.5 °C 1015.1 hPa NE 16.7 km/h 16.7 km/h 55 % 0.0 mm 380.0 W/m2 CLR
13:03 12.1 °C 3.3 °C 1015.1 hPa ENE 5.6 km/h 5.6 km/h 55 % 0.0 mm 397.0 W/m2 CLR
13:08 11.9 °C 2.9 °C 1015.1 hPa ENE 18.5 km/h 18.5 km/h 54 % 0.0 mm 352.0 W/m2 CLR
13:13 11.8 °C 3.1 °C 1015.1 hPa ENE 14.8 km/h 14.8 km/h 55 % 0.0 mm 332.0 W/m2 CLR
13:18 11.7 °C 3.2 °C 1015.5 hPa NNE 16.7 km/h 16.7 km/h 56 % 0.0 mm 325.0 W/m2 CLR
13:23 11.7 °C 3.2 °C 1015.5 hPa NE 13.0 km/h 13.0 km/h 56 % 0.0 mm 316.0 W/m2 CLR
13:28 11.7 °C 3.2 °C 1015.5 hPa NE 13.0 km/h 13.0 km/h 56 % 0.0 mm 329.0 W/m2 CLR
13:33 11.7 °C 3.2 °C 1015.5 hPa North 13.0 km/h 13.0 km/h 56 % 0.0 mm 364.0 W/m2 CLR
13:38 11.8 °C 3.3 °C 1015.5 hPa NE 3.7 km/h 3.7 km/h 56 % 0.0 mm 401.0 W/m2 CLR
13:43 12.0 °C 3.7 °C 1015.5 hPa NE 19.3 km/h 19.3 km/h 57 % 0.0 mm 462.0 W/m2 CLR
13:48 12.1 °C 3.8 °C 1015.5 hPa NE 22.2 km/h 22.2 km/h 57 % 0.0 mm 536.0 W/m2 CLR
13:53 12.2 °C 3.9 °C 1015.1 hPa NE 14.8 km/h 14.8 km/h 57 % 0.0 mm 541.0 W/m2 CLR
13:58 12.3 °C 3.8 °C 1015.1 hPa NE 5.6 km/h 5.6 km/h 56 % 0.0 mm 647.0 W/m2 CLR
14:03 12.7 °C 3.9 °C 1015.1 hPa North 11.1 km/h 11.1 km/h 55 % 0.0 mm 668.0 W/m2 CLR
14:08 12.9 °C 4.3 °C 1015.1 hPa NE 18.5 km/h 18.5 km/h 56 % 0.0 mm 714.0 W/m2 CLR
14:13 13.1 °C 4.4 °C 1015.1 hPa NE 18.5 km/h 18.5 km/h 56 % 0.0 mm 599.0 W/m2 CLR
14:18 13.1 °C 4.0 °C 1015.1 hPa NE 14.8 km/h 14.8 km/h 54 % 0.0 mm 512.0 W/m2 CLR
14:23 12.9 °C 3.8 °C 1015.1 hPa ENE 16.7 km/h 16.7 km/h 54 % 0.0 mm 522.0 W/m2 CLR
14:28 12.9 °C 4.1 °C 1015.1 hPa ENE 16.7 km/h 16.7 km/h 55 % 0.0 mm 675.0 W/m2 CLR
14:33 12.9 °C 3.8 °C 1015.1 hPa NE 16.1 km/h 16.1 km/h 54 % 0.0 mm 499.0 W/m2 CLR
14:38 12.9 °C 4.4 °C 1015.1 hPa NE 16.7 km/h 16.7 km/h 56 % 0.0 mm 434.0 W/m2 CLR
14:43 12.9 °C 4.4 °C 1014.8 hPa ENE 19.3 km/h 19.3 km/h 56 % 0.0 mm 468.0 W/m2 CLR
14:48 13.0 °C 4.4 °C 1014.8 hPa ENE 18.5 km/h 18.5 km/h 56 % 0.0 mm 422.0 W/m2 CLR
14:50 13.0 °C 4.4 °C 1014.8 hPa NE 22.2 km/h 22.2 km/h 56 % 0.0 mm 719.0 W/m2 CLR
15:00 13.2 °C 4.8 °C 1014.8 hPa NE 18.5 km/h 18.5 km/h 57 % 0.0 mm 877.0 W/m2 CLR
15:05 13.3 °C 4.7 °C 1014.8 hPa ENE 31.5 km/h 31.5 km/h 56 % 0.0 mm 446.0 W/m2 CLR
15:10 13.1 °C 4.8 °C 1014.8 hPa ENE 25.9 km/h 25.9 km/h 57 % 0.0 mm 429.0 W/m2 CLR
15:15 12.9 °C 4.9 °C 1014.8 hPa NE 20.9 km/h 20.9 km/h 58 % 0.0 mm 469.0 W/m2 CLR
15:20 12.9 °C 5.1 °C 1014.8 hPa ENE 25.9 km/h 25.9 km/h 59 % 0.0 mm 348.0 W/m2 CLR
15:25 12.7 °C 5.1 °C 1014.8 hPa East 20.4 km/h 20.4 km/h 60 % 0.0 mm 232.0 W/m2 CLR
15:30 12.4 °C 5.1 °C 1014.8 hPa East 13.0 km/h 13.0 km/h 61 % 0.0 mm 225.0 W/m2 CLR
15:35 12.3 °C 5.3 °C 1014.8 hPa ESE 16.7 km/h 16.7 km/h 62 % 0.0 mm 297.0 W/m2 CLR
15:40 12.5 °C 5.4 °C 1014.4 hPa ESE 6.4 km/h 6.4 km/h 62 % 0.0 mm 671.0 W/m2 CLR
15:41 12.5 °C 5.7 °C 1014.4 hPa East 9.3 km/h 9.3 km/h 63 % 0.0 mm 671.0 W/m2 CLR
15:46 12.8 °C 5.4 °C 1014.4 hPa ESE 11.1 km/h 11.1 km/h 61 % 0.0 mm 526.0 W/m2 CLR
15:51 13.1 °C 5.2 °C 1014.4 hPa ENE 18.5 km/h 18.5 km/h 59 % 0.0 mm 441.0 W/m2 CLR
15:56 13.2 °C 4.9 °C 1014.4 hPa SE 13.0 km/h 13.0 km/h 57 % 0.0 mm 589.0 W/m2 CLR
16:01 13.3 °C 5.0 °C 1014.4 hPa ESE 13.0 km/h 13.0 km/h 57 % 0.0 mm 587.0 W/m2 CLR
16:06 13.2 °C 4.4 °C 1014.1 hPa ESE 14.8 km/h 14.8 km/h 55 % 0.0 mm 554.0 W/m2 CLR
16:11 13.2 °C 4.4 °C 1014.1 hPa East 9.3 km/h 9.3 km/h 55 % 0.0 mm 494.0 W/m2 CLR
16:16 13.0 °C 4.2 °C 1014.1 hPa East 14.8 km/h 14.8 km/h 55 % 0.0 mm 229.0 W/m2 CLR
16:21 12.9 °C 3.8 °C 1014.1 hPa East 16.7 km/h 16.7 km/h 54 % 0.0 mm 237.0 W/m2 CLR
16:26 12.8 °C 4.0 °C 1014.1 hPa ESE 18.5 km/h 18.5 km/h 55 % 0.0 mm 202.0 W/m2 CLR
16:31 12.8 °C 3.9 °C 1014.1 hPa East 9.3 km/h 9.3 km/h 55 % 0.0 mm 236.0 W/m2 CLR
16:36 12.8 °C 4.0 °C 1014.1 hPa ESE 9.7 km/h 9.7 km/h 55 % 0.0 mm 371.0 W/m2 CLR
16:41 13.2 °C 4.6 °C 1014.4 hPa ESE 13.0 km/h 13.0 km/h 56 % 0.0 mm 468.0 W/m2 CLR
16:46 13.2 °C 4.1 °C 1014.4 hPa East 14.8 km/h 14.8 km/h 54 % 0.0 mm 404.0 W/m2 CLR
16:51 13.2 °C 4.1 °C 1014.4 hPa ESE 16.7 km/h 16.7 km/h 54 % 0.0 mm 380.0 W/m2 CLR
16:56 13.1 °C 4.0 °C 1014.4 hPa ENE 13.0 km/h 13.0 km/h 54 % 0.0 mm 193.0 W/m2 CLR
17:01 13.0 °C 3.9 °C 1014.4 hPa East 11.3 km/h 11.3 km/h 54 % 0.0 mm 200.0 W/m2 CLR
17:06 12.9 °C 4.1 °C 1014.4 hPa East 9.3 km/h 9.3 km/h 55 % 0.0 mm 183.0 W/m2 CLR
17:11 12.9 °C 3.8 °C 1014.4 hPa East 14.8 km/h 14.8 km/h 54 % 0.0 mm 197.0 W/m2 CLR
17:16 12.9 °C 4.3 °C 1014.4 hPa East 13.0 km/h 13.0 km/h 56 % 0.0 mm 141.0 W/m2 CLR
17:21 12.9 °C 4.3 °C 1014.4 hPa ESE 9.3 km/h 9.3 km/h 56 % 0.0 mm 116.0 W/m2 CLR
17:26 12.9 °C 4.6 °C 1014.4 hPa ESE 13.0 km/h 13.0 km/h 57 % 0.0 mm 95.0 W/m2 CLR
17:31 12.8 °C 5.0 °C 1014.8 hPa ESE 7.4 km/h 7.4 km/h 59 % 0.0 mm 97.0 W/m2 CLR
17:36 12.8 °C 5.0 °C 1014.4 hPa ESE 18.5 km/h 18.5 km/h 59 % 0.0 mm 100.0 W/m2 CLR
17:41 12.7 °C 5.2 °C 1014.4 hPa ESE 12.9 km/h 12.9 km/h 60 % 0.0 mm 84.0 W/m2 CLR
17:46 12.7 °C 5.2 °C 1014.8 hPa ESE 11.1 km/h 11.1 km/h 60 % 0.0 mm 76.0 W/m2 CLR
17:51 12.7 °C 5.1 °C 1014.8 hPa ESE 5.6 km/h 5.6 km/h 60 % 0.0 mm 62.0 W/m2 FEW
18:01 12.5 °C 5.2 °C 1014.8 hPa SE 9.3 km/h 9.3 km/h 61 % 0.0 mm 70.0 W/m2 FEW
18:06 12.5 °C 5.2 °C 1014.8 hPa East 16.7 km/h 16.7 km/h 61 % 0.0 mm 62.0 W/m2 FEW
18:11 12.4 °C 5.3 °C 1014.8 hPa East 9.3 km/h 9.3 km/h 62 % 0.0 mm 40.0 W/m2 SCT
18:16 12.4 °C 5.3 °C 1014.8 hPa ESE 6.4 km/h 6.4 km/h 62 % 0.0 mm 47.0 W/m2 SCT
18:21 12.3 °C 5.3 °C 1014.8 hPa East 11.3 km/h 11.3 km/h 62 % 0.0 mm 40.0 W/m2 BKN
18:26 12.3 °C 5.4 °C 1014.8 hPa East 7.4 km/h 7.4 km/h 63 % 0.0 mm 37.0 W/m2 BKN
18:31 12.2 °C 5.4 °C 1014.8 hPa East 5.6 km/h 5.6 km/h 63 % 0.0 mm 30.0 W/m2 BKN
18:36 12.2 °C 5.3 °C 1015.1 hPa East 5.6 km/h 5.6 km/h 63 % 0.0 mm 30.0 W/m2 BKN
18:41 12.2 °C 5.3 °C 1015.1 hPa East 11.1 km/h 11.1 km/h 63 % 0.0 mm 25.0 W/m2 BKN
18:46 12.2 °C 5.6 °C 1015.1 hPa ESE 3.2 km/h 3.2 km/h 64 % 0.0 mm 18.0 W/m2 BKN
18:51 12.1 °C 5.5 °C 1015.1 hPa ESE 5.6 km/h 5.6 km/h 64 % 0.0 mm 12.0 W/m2 BKN
18:56 12.1 °C 5.4 °C 1015.1 hPa Calm     64 % 0.0 mm 9.0 W/m2 BKN
19:01 12.1 °C 5.4 °C 1015.1 hPa Calm     64 % 0.0 mm 7.0 W/m2 BKN
19:06 11.9 °C 5.6 °C 1015.1 hPa East 5.6 km/h 5.6 km/h 65 % 0.0 mm 5.0 W/m2 OVC
19:11 11.9 °C 5.5 °C 1015.1 hPa Calm     65 % 0.0 mm 0.0 W/m2 OVC
19:16 11.8 °C 5.7 °C 1015.1 hPa Calm     66 % 0.0 mm 0.0 W/m2 OVC
19:21 11.7 °C 5.8 °C 1015.1 hPa Calm     67 % 0.0 mm 0.0 W/m2 OVC
19:26 11.6 °C 5.7 °C 1015.5 hPa Calm     67 % 0.0 mm 0.0 W/m2 OVC
19:31 11.4 °C 5.7 °C 1015.5 hPa NE 13.0 km/h 13.0 km/h 68 % 0.0 mm 0.0 W/m2 CLR
19:36 11.0 °C 5.7 °C 1015.5 hPa NE 6.4 km/h 6.4 km/h 70 % 0.0 mm 0.0 W/m2 CLR
19:41 10.4 °C 5.8 °C 1015.8 hPa North 13.0 km/h 13.0 km/h 73 % 0.0 mm 0.0 W/m2 CLR
19:46 9.9 °C 5.7 °C 1015.8 hPa North 13.0 km/h 13.0 km/h 75 % 0.0 mm 0.0 W/m2 CLR
19:51 9.6 °C 5.6 °C 1015.8 hPa NNE 9.3 km/h 9.3 km/h 76 % 0.0 mm 0.0 W/m2 CLR
19:53 9.6 °C 5.6 °C 1015.8 hPa NNE 9.7 km/h 9.7 km/h 76 % 0.0 mm 0.0 W/m2 CLR
19:58 9.3 °C 5.5 °C 1016.1 hPa NNE 7.4 km/h   77 % 0.0 mm 0.0 W/m2 CLR
20:03 9.1 °C 5.5 °C 1016.1 hPa Calm     78 % 0.0 mm 0.0 W/m2 CLR
20:08 9.0 °C 5.4 °C 1016.1 hPa Calm     78 % 0.0 mm 0.0 W/m2 CLR
20:13 8.9 °C 5.3 °C 1016.1 hPa Calm     78 % 0.0 mm 0.0 W/m2 CLR
20:18 8.8 °C 5.3 °C 1016.5 hPa Calm     79 % 0.0 mm 0.0 W/m2 CLR
20:23 8.7 °C 5.3 °C 1016.5 hPa Calm     79 % 0.0 mm 0.0 W/m2 CLR
20:28 8.7 °C 5.4 °C 1016.1 hPa Calm     80 % 0.0 mm 0.0 W/m2 CLR
20:33 8.6 °C 5.3 °C 1016.5 hPa Calm     80 % 0.0 mm 0.0 W/m2 CLR
20:38 8.4 °C 5.1 °C 1016.5 hPa Calm     80 % 0.0 mm 0.0 W/m2 CLR
20:43 8.3 °C 5.3 °C 1016.5 hPa Calm     81 % 0.0 mm 0.0 W/m2 CLR
20:48 8.3 °C 5.2 °C 1016.5 hPa Calm     81 % 0.0 mm 0.0 W/m2 CLR
20:53 8.2 °C 5.2 °C 1016.5 hPa Calm     81 % 0.0 mm 0.0 W/m2 CLR
20:58 8.2 °C 5.1 °C 1016.5 hPa Calm     81 % 0.0 mm 0.0 W/m2 CLR
21:03 8.0 °C 5.1 °C 1016.5 hPa Calm     82 % 0.0 mm 0.0 W/m2 CLR
21:08 7.9 °C 5.0 °C 1016.5 hPa Calm     82 % 0.0 mm 0.0 W/m2 CLR
21:13 7.7 °C 5.0 °C 1016.8 hPa Calm     83 % 0.0 mm 0.0 W/m2 CLR
21:18 7.7 °C 4.9 °C 1016.8 hPa Calm     83 % 0.0 mm 0.0 W/m2 CLR
21:23 7.7 °C 4.9 °C 1016.8 hPa Calm     83 % 0.0 mm 0.0 W/m2 CLR
21:28 7.6 °C 5.1 °C 1017.2 hPa Calm     84 % 0.0 mm 0.0 W/m2 CLR
21:33 7.6 °C 5.0 °C 1017.5 hPa Calm     84 % 0.0 mm 0.0 W/m2 CLR
21:38 7.4 °C 4.9 °C 1017.5 hPa Calm     84 % 0.0 mm 0.0 W/m2 CLR
21:43 7.4 °C 4.8 °C 1017.5 hPa Calm     84 % 0.0 mm 0.0 W/m2 CLR
21:58 7.4 °C 5.1 °C 1017.5 hPa Calm     85 % 0.0 mm 0.0 W/m2 CLR
22:03 7.4 °C 5.1 °C 1017.5 hPa Calm     85 % 0.0 mm 0.0 W/m2 CLR
22:08 7.4 °C 5.1 °C 1017.5 hPa Calm     85 % 0.0 mm 0.0 W/m2 CLR
22:13 7.4 °C 5.1 °C 1017.5 hPa Calm     85 % 0.0 mm 0.0 W/m2 CLR
22:18 7.4 °C 5.1 °C 1017.5 hPa Calm     85 % 0.0 mm 0.0 W/m2 CLR
22:23 7.4 °C 5.1 °C 1017.5 hPa Calm     85 % 0.0 mm 0.0 W/m2 CLR
22:28 7.3 °C 5.2 °C 1017.5 hPa Calm     86 % 0.0 mm 0.0 W/m2 CLR
22:33 7.4 °C 5.2 °C 1017.5 hPa Calm     86 % 0.0 mm 0.0 W/m2 CLR
22:38 7.4 °C 5.3 °C 1017.5 hPa Calm     86 % 0.0 mm 0.0 W/m2 CLR
22:43 7.4 °C 5.3 °C 1017.5 hPa Calm     86 % 0.0 mm 0.0 W/m2 CLR
22:48 7.4 °C 5.3 °C 1017.5 hPa Calm     86 % 0.0 mm 0.0 W/m2 CLR
22:53 7.4 °C 5.3 °C 1017.5 hPa Calm     86 % 0.0 mm 0.0 W/m2 CLR
22:58 7.4 °C 5.3 °C 1017.5 hPa Calm     86 % 0.0 mm 0.0 W/m2 CLR
23:03 7.4 °C 5.3 °C 1017.5 hPa Calm     86 % 0.0 mm 0.0 W/m2 CLR
23:08 7.4 °C 5.3 °C 1017.5 hPa Calm     86 % 0.0 mm 0.0 W/m2 CLR
23:13 7.4 °C 5.2 °C 1017.5 hPa Calm     86 % 0.0 mm 0.0 W/m2 CLR
23:18 7.4 °C 5.2 °C 1017.5 hPa Calm     86 % 0.0 mm 0.0 W/m2 CLR
23:23 7.3 °C 5.2 °C 1017.8 hPa Calm     86 % 0.0 mm 0.0 W/m2 CLR
23:28 7.4 °C 5.2 °C 1017.8 hPa Calm     86 % 0.0 mm 0.0 W/m2 CLR
23:33 7.6 °C 5.4 °C 1017.8 hPa Calm     86 % 0.0 mm 0.0 W/m2 CLR
23:38 7.7 °C 5.3 °C 1017.8 hPa Calm     85 % 0.0 mm 0.0 W/m2 CLR
23:43 7.7 °C 5.3 °C 1017.8 hPa Calm     85 % 0.0 mm 0.0 W/m2 CLR
23:48 7.7 °C 5.3 °C 1017.8 hPa Calm     85 % 0.0 mm 0.0 W/m2 CLR
23:49 7.7 °C 5.3 °C 1017.8 hPa Calm     85 % 0.0 mm 0.0 W/m2 CLR
23:54 7.6 °C 5.2 °C 1017.8 hPa Calm     85 % 0.0 mm 0.0 W/m2 CLR
23:59 7.6 °C 5.2 °C 1017.8 hPa Calm     85 % 0.0 mm 0.0 W/m2 CLR
Lo Temps de Massalio
Compliments of Weather Underground - 1.25 mb